Panda — PBCS — position and weather

sailwx.info

Track history (hours):
 
Tides and Currents Weather Stations Pressure Air Temp Water Temp Dewpoint Dewpoint Depression Visibility Wind Speed Wind Dir Waves Ship Positions

Panda

Last reported at 2014-Oct-27 20:33 UTC. Time now 2014-Oct-31 13:36 UTC.
Position N 43°25' E 009°19'.

Length 89 m; draft 4.4 m.

Type: Cargo ship. MMSI: 245014000.

Date/timePositionNaut miles runAvg speedWind from/ knotsBaromVisibWave heightAir tempDewpointWater temp
2014-Oct-27 20:33N 43°25' E 009°19'1010.1
2014-Oct-27 19:33N 43°32' E 009°28'10 9.9
2014-Oct-27 18:33N 43°40' E 009°37'10 9.8
2014-Oct-27 17:33N 43°47' E 009°47'1010.2
2014-Oct-27 16:34N 43°55' E 009°55'9 8.6
2014-Oct-27 15:32N 44°02' E 010°02'0 0.1
2014-Oct-27 14:32N 44°02' E 010°02'0 0.0
2014-Oct-27 12:26N 44°02' E 010°02'0 0.0
2014-Oct-27 11:14N 44°02' E 010°02'0 0.0
2014-Oct-27 10:31N 44°02' E 010°02'0 0.0
2014-Oct-27 09:25N 44°02' E 010°02'0 0.0
2014-Oct-27 08:28N 44°02' E 010°02'0 0.0
2014-Oct-27 06:31N 44°02' E 010°02'0 0.0
2014-Oct-27 05:31N 44°02' E 010°02'0 0.0
2014-Oct-27 04:31N 44°02' E 010°02'0 0.0
2014-Oct-27 03:31N 44°02' E 010°02'0 0.0
2014-Oct-27 02:31N 44°02' E 010°02'0 0.0
2014-Oct-27 01:31N 44°02' E 010°02'0 0.0
2014-Oct-27 00:31N 44°02' E 010°02'0 0.0
2014-Oct-26 23:28N 44°02' E 010°02'0 0.0
2014-Oct-26 22:31N 44°02' E 010°02'0 0.0
2014-Oct-26 21:31N 44°02' E 010°02'0 0.0
2014-Oct-26 20:31N 44°02' E 010°02'0 0.0
2014-Oct-26 19:28N 44°02' E 010°02'0 0.0
2014-Oct-26 18:31N 44°02' E 010°02'0 0.0
2014-Oct-26 17:31N 44°02' E 010°02'0 0.0
2014-Oct-26 16:31N 44°02' E 010°02'0 0.0
2014-Oct-26 15:28N 44°02' E 010°02'0 0.0
2014-Oct-26 14:31N 44°02' E 010°02'0 0.0
2014-Oct-26 13:31N 44°02' E 010°02'0 0.0
2014-Oct-26 12:31N 44°02' E 010°02'0 0.0
2014-Oct-26 11:31N 44°02' E 010°02'0 0.0
2014-Oct-26 10:28N 44°02' E 010°02'0 0.0
2014-Oct-26 09:31N 44°02' E 010°02'0 0.0
2014-Oct-26 08:31N 44°02' E 010°02'0 0.0
2014-Oct-26 07:31N 44°02' E 010°02'0 0.0
2014-Oct-26 06:31N 44°02' E 010°02'0 0.0
2014-Oct-26 05:28N 44°02' E 010°02'0 0.0
2014-Oct-26 04:31N 44°02' E 010°02'0 0.0
2014-Oct-26 03:31N 44°02' E 010°02'0 0.0
2014-Oct-26 02:31N 44°02' E 010°02'0 0.0
2014-Oct-26 01:31N 44°02' E 010°02'0 0.0
2014-Oct-26 00:34N 44°02' E 010°02'0 0.0
2014-Oct-25 23:34N 44°02' E 010°02'0 0.0
2014-Oct-25 22:33N 44°02' E 010°02'0 0.0
2014-Oct-25 21:33N 44°02' E 010°02'0 0.0
2014-Oct-25 20:33N 44°02' E 010°02'0 0.0
2014-Oct-25 19:33N 44°02' E 010°02'0 0.0
2014-Oct-25 18:33N 44°02' E 010°02'0 0.0
2014-Oct-25 17:27N 44°02' E 010°02'0 0.0
2014-Oct-25 16:30N 44°02' E 010°02'0 0.0
2014-Oct-25 15:33N 44°02' E 010°02'0 0.0
2014-Oct-25 14:33N 44°02' E 010°02'0 0.0
2014-Oct-25 13:30N 44°02' E 010°02'0 0.0
2014-Oct-25 12:33N 44°02' E 010°02'0 0.0
2014-Oct-25 11:33N 44°02' E 010°02'4 4.1
2014-Oct-25 10:33N 43°59' E 009°59'1010.1
2014-Oct-25 09:33N 43°55' E 009°46'10 9.9
2014-Oct-25 08:33N 43°52' E 009°33'10 9.7
2014-Oct-25 07:33N 43°49' E 009°20'10 9.9
2014-Oct-25 06:33N 43°45' E 009°07'1010.4
2014-Oct-25 05:33N 43°41' E 008°54'1010.2
2014-Oct-25 04:32N 43°37' E 008°41'76 9.4
2014-Oct-24 20:29N 43°09' E 007°04'9 9.9
2014-Oct-24 19:33N 43°06' E 006°52'36 9.0
2014-Oct-24 15:32N 42°58' E 006°04'41 9.1
2014-Oct-24 11:05N 43°12' E 005°11'810.5
2014-Oct-24 10:18N 43°18' E 005°03'810.2
2014-Oct-24 09:33N 43°23' E 004°56'5 3.7
2014-Oct-24 08:06N 43°23' E 004°49'  
2014-Oct-18 11:32N 43°26' E 004°44'4 4.5
2014-Oct-18 10:33N 43°23' E 004°48'5 5.4
2014-Oct-18 09:33N 43°23' E 004°56'7 7.1
2014-Oct-18 08:33N 43°16' E 004°56'9 9.3
2014-Oct-18 07:32N 43°09' E 004°48'9 9.2
2014-Oct-18 06:33N 43°01' E 004°41'81 9.1
2014-Oct-17 21:33N 41°55' E 003°36'  
Track history (hours):
 
Tides and Currents Weather Stations Pressure Air Temp Water Temp Dewpoint Dewpoint Depression Visibility Wind Speed Wind Dir Waves Ship Positions

Panda

Last reported at 2014-Oct-27 20:33 UTC. Time now 2014-Oct-31 13:36 UTC.
Position N 43°25' E 009°19'.

Length 89 m; draft 4.4 m.

Type: Cargo ship. MMSI: 245014000.

Date/timePositionNaut miles runAvg speedWind from/ knotsBaromVisibWave heightAir tempDewpointWater temp
2014-Oct-27 20:33N 43°25' E 009°19'1010.1
2014-Oct-27 19:33N 43°32' E 009°28'10 9.9
2014-Oct-27 18:33N 43°40' E 009°37'10 9.8
2014-Oct-27 17:33N 43°47' E 009°47'1010.2
2014-Oct-27 16:34N 43°55' E 009°55'9 8.6
2014-Oct-27 15:32N 44°02' E 010°02'0 0.1
2014-Oct-27 14:32N 44°02' E 010°02'0 0.0
2014-Oct-27 12:26N 44°02' E 010°02'0 0.0
2014-Oct-27 11:14N 44°02' E 010°02'0 0.0
2014-Oct-27 10:31N 44°02' E 010°02'0 0.0
2014-Oct-27 09:25N 44°02' E 010°02'0 0.0
2014-Oct-27 08:28N 44°02' E 010°02'0 0.0
2014-Oct-27 06:31N 44°02' E 010°02'0 0.0
2014-Oct-27 05:31N 44°02' E 010°02'0 0.0
2014-Oct-27 04:31N 44°02' E 010°02'0 0.0
2014-Oct-27 03:31N 44°02' E 010°02'0 0.0
2014-Oct-27 02:31N 44°02' E 010°02'0 0.0
2014-Oct-27 01:31N 44°02' E 010°02'0 0.0
2014-Oct-27 00:31N 44°02' E 010°02'0 0.0
2014-Oct-26 23:28N 44°02' E 010°02'0 0.0
2014-Oct-26 22:31N 44°02' E 010°02'0 0.0
2014-Oct-26 21:31N 44°02' E 010°02'0 0.0
2014-Oct-26 20:31N 44°02' E 010°02'0 0.0
2014-Oct-26 19:28N 44°02' E 010°02'0 0.0
2014-Oct-26 18:31N 44°02' E 010°02'0 0.0
2014-Oct-26 17:31N 44°02' E 010°02'0 0.0
2014-Oct-26 16:31N 44°02' E 010°02'0 0.0
2014-Oct-26 15:28N 44°02' E 010°02'0 0.0
2014-Oct-26 14:31N 44°02' E 010°02'0 0.0
2014-Oct-26 13:31N 44°02' E 010°02'0 0.0
2014-Oct-26 12:31N 44°02' E 010°02'0 0.0
2014-Oct-26 11:31N 44°02' E 010°02'0 0.0
2014-Oct-26 10:28N 44°02' E 010°02'0 0.0
2014-Oct-26 09:31N 44°02' E 010°02'0 0.0
2014-Oct-26 08:31N 44°02' E 010°02'0 0.0
2014-Oct-26 07:31N 44°02' E 010°02'0 0.0
2014-Oct-26 06:31N 44°02' E 010°02'0 0.0
2014-Oct-26 05:28N 44°02' E 010°02'0 0.0
2014-Oct-26 04:31N 44°02' E 010°02'0 0.0
2014-Oct-26 03:31N 44°02' E 010°02'0 0.0
2014-Oct-26 02:31N 44°02' E 010°02'0 0.0
2014-Oct-26 01:31N 44°02' E 010°02'0 0.0
2014-Oct-26 00:34N 44°02' E 010°02'0 0.0
2014-Oct-25 23:34N 44°02' E 010°02'0 0.0
2014-Oct-25 22:33N 44°02' E 010°02'0 0.0
2014-Oct-25 21:33N 44°02' E 010°02'0 0.0
2014-Oct-25 20:33N 44°02' E 010°02'0 0.0
2014-Oct-25 19:33N 44°02' E 010°02'0 0.0
2014-Oct-25 18:33N 44°02' E 010°02'0 0.0
2014-Oct-25 17:27N 44°02' E 010°02'0 0.0
2014-Oct-25 16:30N 44°02' E 010°02'0 0.0
2014-Oct-25 15:33N 44°02' E 010°02'0 0.0
2014-Oct-25 14:33N 44°02' E 010°02'0 0.0
2014-Oct-25 13:30N 44°02' E 010°02'0 0.0
2014-Oct-25 12:33N 44°02' E 010°02'0 0.0
2014-Oct-25 11:33N 44°02' E 010°02'4 4.1
2014-Oct-25 10:33N 43°59' E 009°59'1010.1
2014-Oct-25 09:33N 43°55' E 009°46'10 9.9
2014-Oct-25 08:33N 43°52' E 009°33'10 9.7
2014-Oct-25 07:33N 43°49' E 009°20'10 9.9
2014-Oct-25 06:33N 43°45' E 009°07'1010.4
2014-Oct-25 05:33N 43°41' E 008°54'1010.2
2014-Oct-25 04:32N 43°37' E 008°41'76 9.4
2014-Oct-24 20:29N 43°09' E 007°04'9 9.9
2014-Oct-24 19:33N 43°06' E 006°52'36 9.0
2014-Oct-24 15:32N 42°58' E 006°04'41 9.1
2014-Oct-24 11:05N 43°12' E 005°11'810.5
2014-Oct-24 10:18N 43°18' E 005°03'810.2
2014-Oct-24 09:33N 43°23' E 004°56'5 3.7
2014-Oct-24 08:06N 43°23' E 004°49'  
2014-Oct-18 11:32N 43°26' E 004°44'4 4.5
2014-Oct-18 10:33N 43°23' E 004°48'5 5.4
2014-Oct-18 09:33N 43°23' E 004°56'7 7.1
2014-Oct-18 08:33N 43°16' E 004°56'9 9.3
2014-Oct-18 07:32N 43°09' E 004°48'9 9.2
2014-Oct-18 06:33N 43°01' E 004°41'81 9.1
2014-Oct-17 21:33N 41°55' E 003°36'  

Dump ship's entire track history